CPT904 PHNL-PHMK

Flight info

Callsign CPT904
Flight time 0h 25m
Altitude 7000
Route MKK5 MKK
Aircraft C208/L-SDFGR/C

Departure

Time 2026-04-24 00:12
Airport Daniel K. Inouye International Airport (PHNL)

Arrival

Time 2026-04-24 00:37
Airport Molokai Airport (PHMK)
Time Latitude Longitude Altitude Speed Heading
2026-04-23 23:56 21.31776 -157.91750 23 ft 0 kts 322°
2026-04-24 00:08 21.31778 -157.91752 23 ft 3 kts 322°
2026-04-24 00:08 21.31799 -157.91808 23 ft 15 kts 256°
2026-04-24 00:09 21.31733 -157.91939 23 ft 25 kts 234°
2026-04-24 00:09 21.31613 -157.92111 23 ft 33 kts 232°
2026-04-24 00:09 21.31463 -157.92326 23 ft 39 kts 235°
2026-04-24 00:09 21.31309 -157.92543 26 ft 23 kts 232°
2026-04-24 00:10 21.31318 -157.92637 23 ft 9 kts 324°
2026-04-24 00:10 21.31327 -157.92644 23 ft 0 kts 323°
2026-04-24 00:10 21.31350 -157.92664 23 ft 12 kts 323°
2026-04-24 00:11 21.31455 -157.92629 25 ft 28 kts 51°
2026-04-24 00:11 21.31656 -157.92342 25 ft 70 kts 52°
2026-04-24 00:11 21.32016 -157.91841 83 ft 94 kts 56°
2026-04-24 00:11 21.32423 -157.91297 353 ft 94 kts 56°
2026-04-24 00:12 21.32763 -157.90664 524 ft 103 kts 85°
2026-04-24 00:12 21.32523 -157.89951 772 ft 109 kts 130°
2026-04-24 00:12 21.31871 -157.89457 958 ft 115 kts 136°
2026-04-24 00:12 21.31316 -157.88907 1285 ft 106 kts 131°
2026-04-24 00:13 21.30821 -157.88338 1575 ft 104 kts 126°
2026-04-24 00:13 21.30345 -157.87721 1712 ft 118 kts 130°
2026-04-24 00:13 21.29672 -157.87114 1825 ft 130 kts 137°
2026-04-24 00:13 21.28963 -157.86507 2003 ft 132 kts 137°
2026-04-24 00:14 21.28237 -157.85889 2170 ft 134 kts 137°
2026-04-24 00:14 21.27497 -157.85262 2336 ft 136 kts 137°
2026-04-24 00:14 21.26753 -157.84631 2506 ft 136 kts 137°
2026-04-24 00:14 21.26015 -157.84009 2709 ft 135 kts 137°
2026-04-24 00:15 21.25283 -157.83392 2902 ft 133 kts 137°
2026-04-24 00:15 21.24789 -157.82980 3034 ft 133 kts 137°
2026-04-24 00:15 21.24060 -157.82370 3235 ft 133 kts 137°
2026-04-24 00:15 21.23340 -157.81766 3429 ft 131 kts 140°
2026-04-24 00:16 21.22453 -157.81562 3602 ft 139 kts 193°
2026-04-24 00:16 21.21683 -157.82176 3800 ft 140 kts 226°
2026-04-24 00:16 21.21005 -157.82925 4006 ft 139 kts 224°
2026-04-24 00:16 21.20334 -157.83655 4205 ft 139 kts 224°
2026-04-24 00:17 21.19656 -157.84394 4403 ft 138 kts 224°
2026-04-24 00:17 21.18948 -157.85088 4596 ft 138 kts 205°
2026-04-24 00:17 21.18056 -157.85075 4799 ft 130 kts 143°
2026-04-24 00:17 21.17660 -157.84282 5012 ft 123 kts 93°
2026-04-24 00:18 21.17605 -157.83379 5212 ft 120 kts 90°
2026-04-24 00:18 21.17568 -157.82486 5411 ft 120 kts 91°
2026-04-24 00:18 21.17522 -157.81591 5607 ft 122 kts 91°
2026-04-24 00:18 21.17476 -157.80691 5810 ft 121 kts 91°
2026-04-24 00:19 21.17430 -157.79792 6001 ft 121 kts 91°
2026-04-24 00:19 21.17381 -157.78869 6111 ft 132 kts 91°
2026-04-24 00:19 21.17322 -157.77829 6206 ft 140 kts 92°
2026-04-24 00:19 21.17268 -157.76814 6439 ft 136 kts 92°
2026-04-24 00:20 21.17212 -157.75799 6623 ft 137 kts 92°
2026-04-24 00:20 21.17153 -157.74783 6800 ft 136 kts 92°
2026-04-24 00:20 21.17096 -157.73768 6970 ft 137 kts 92°
2026-04-24 00:20 21.17039 -157.72715 6998 ft 147 kts 92°
2026-04-24 00:21 21.16974 -157.71586 7003 ft 156 kts 92°
2026-04-24 00:21 21.16908 -157.70402 7004 ft 162 kts 92°
2026-04-24 00:21 21.16839 -157.69185 6995 ft 165 kts 92°
2026-04-24 00:21 21.16768 -157.67950 6999 ft 168 kts 92°
2026-04-24 00:22 21.16700 -157.66698 6998 ft 169 kts 92°
2026-04-24 00:22 21.16630 -157.65436 7000 ft 170 kts 92°
2026-04-24 00:22 21.16558 -157.64171 6999 ft 170 kts 92°
2026-04-24 00:22 21.16487 -157.62905 7000 ft 171 kts 92°
2026-04-24 00:23 21.16417 -157.61639 7001 ft 170 kts 92°
2026-04-24 00:23 21.16345 -157.60370 7002 ft 171 kts 93°
2026-04-24 00:23 21.16269 -157.59095 7002 ft 172 kts 92°
2026-04-24 00:23 21.16200 -157.57822 7003 ft 171 kts 92°
2026-04-24 00:24 21.16128 -157.56551 7002 ft 171 kts 92°
2026-04-24 00:24 21.16058 -157.55287 7001 ft 170 kts 92°
2026-04-24 00:24 21.15984 -157.54018 6999 ft 170 kts 92°
2026-04-24 00:24 21.15912 -157.52750 6998 ft 170 kts 92°
2026-04-24 00:25 21.15839 -157.51481 6996 ft 170 kts 92°
2026-04-24 00:25 21.15767 -157.50213 6996 ft 170 kts 92°
2026-04-24 00:25 21.15695 -157.48949 6995 ft 170 kts 92°
2026-04-24 00:25 21.15622 -157.47684 6998 ft 170 kts 92°
2026-04-24 00:26 21.15550 -157.46422 6999 ft 170 kts 92°
2026-04-24 00:26 21.15479 -157.45162 6999 ft 170 kts 92°
2026-04-24 00:26 21.15406 -157.43900 6995 ft 170 kts 92°
2026-04-24 00:26 21.15335 -157.42640 6969 ft 171 kts 92°
2026-04-24 00:27 21.15261 -157.41351 6762 ft 178 kts 93°
2026-04-24 00:27 21.15183 -157.40028 6541 ft 178 kts 92°
2026-04-24 00:27 21.15107 -157.38707 6318 ft 178 kts 92°
2026-04-24 00:27 21.15031 -157.37390 6096 ft 177 kts 92°
2026-04-24 00:28 21.14956 -157.36078 5872 ft 176 kts 92°
2026-04-24 00:28 21.14881 -157.34775 5647 ft 175 kts 92°
2026-04-24 00:28 21.14806 -157.33477 5419 ft 174 kts 92°
2026-04-24 00:28 21.14730 -157.32188 5192 ft 173 kts 92°
2026-04-24 00:29 21.14656 -157.30905 4966 ft 171 kts 92°
2026-04-24 00:29 21.14584 -157.29636 4740 ft 171 kts 92°
2026-04-24 00:29 21.14509 -157.28368 4515 ft 170 kts 92°
2026-04-24 00:29 21.14432 -157.27095 4292 ft 171 kts 92°
2026-04-24 00:30 21.14360 -157.25828 4069 ft 169 kts 92°
2026-04-24 00:30 21.14287 -157.24579 3842 ft 168 kts 92°
2026-04-24 00:30 21.14211 -157.23378 3600 ft 153 kts 92°
2026-04-24 00:30 21.14140 -157.22312 3338 ft 137 kts 91°
2026-04-24 00:31 21.14085 -157.21330 3066 ft 129 kts 91°
2026-04-24 00:31 21.14030 -157.20428 2989 ft 110 kts 91°
2026-04-24 00:31 21.13989 -157.19652 3003 ft 105 kts 89°
2026-04-24 00:31 21.13952 -157.18822 3013 ft 117 kts 91°
2026-04-24 00:32 21.13895 -157.17972 3004 ft 109 kts 91°
2026-04-24 00:32 21.13851 -157.17199 2922 ft 102 kts 89°
2026-04-24 00:32 21.13819 -157.16429 2734 ft 106 kts 90°
2026-04-24 00:32 21.13735 -157.15643 2528 ft 107 kts 91°
2026-04-24 00:33 21.13610 -157.14843 2302 ft 111 kts 97°
2026-04-24 00:33 21.13453 -157.14016 2058 ft 117 kts 96°
2026-04-24 00:33 21.13394 -157.13150 1723 ft 120 kts 82°
2026-04-24 00:33 21.13581 -157.12337 1431 ft 110 kts 59°
2026-04-24 00:34 21.14075 -157.11736 1272 ft 104 kts 43°
2026-04-24 00:34 21.14497 -157.11124 952 ft 101 kts 54°
2026-04-24 00:34 21.14794 -157.10463 654 ft 97 kts 66°
2026-04-24 00:34 21.15115 -157.09845 701 ft 92 kts 59°
2026-04-24 00:35 21.15471 -157.09269 992 ft 92 kts 55°
2026-04-24 00:35 21.15428 -157.08631 1214 ft 110 kts 139°
2026-04-24 00:35 21.14613 -157.08742 1350 ft 128 kts 208°
2026-04-24 00:35 21.13814 -157.09268 1243 ft 135 kts 207°
2026-04-24 00:36 21.13079 -157.09814 1164 ft 122 kts 245°
2026-04-24 00:36 21.13272 -157.10565 988 ft 107 kts 332°
2026-04-24 00:36 21.13881 -157.10959 877 ft 101 kts 340°
2026-04-24 00:36 21.14493 -157.10934 758 ft 92 kts 48°
2026-04-24 00:37 21.14845 -157.10331 559 ft 97 kts 57°
2026-04-24 00:37 21.15173 -157.09719 461 ft 90 kts 60°
2026-04-24 00:37 21.15411 -157.09270 463 ft 24 kts 60°
2026-04-24 00:37 21.15433 -157.09264 463 ft 5 kts 313°
2026-04-24 00:38 21.15459 -157.09288 462 ft 6 kts 325°
2026-04-24 00:38 21.15488 -157.09279 462 ft 7 kts 59°
2026-04-24 00:38 21.15525 -157.09256 462 ft 5 kts
2026-04-24 00:38 21.15538 -157.09242 462 ft 1 kts 58°
2026-04-24 00:39 21.15539 -157.09240 462 ft 0 kts 57°